Date,TemperatureHighF,TemperatureAvgF,TemperatureLowF,DewpointHighF,DewpointAvgF,DewpointLowF,HumidityHigh,HumidityAvg,HumidityLow,PressureMaxIn,PressureMinIn,WindSpeedMaxMPH,WindSpeedAvgMPH,GustSpeedMaxMPH,PrecipitationSumIn
2014-1-1,5.0,2.7,1.0,-99.9,-99.9,-99.9,0,0,100,0.00,40.00,0,-999,0,0.00
2014-1-2,1.0,-2.6,-11.0,-99.9,-99.9,-99.9,0,0,100,0.00,40.00,0,-999,0,0.00
2014-1-3,27.0,13.2,-11.0,-99.9,-99.9,-99.9,0,0,100,0.00,40.00,0,-999,0,0.00
2014-1-4,30.0,18.1,3.0,-99.9,-99.9,-99.9,0,0,100,0.00,40.00,0,-999,0,0.00
2014-1-5,5.0,-2.4,-11.0,-99.9,-99.9,-99.9,0,0,100,0.00,40.00,0,-999,0,0.00
2014-1-6,-8.0,-14.0,-18.0,-99.9,-99.9,-99.9,0,0,100,0.00,40.00,0,-999,0,0.00
2014-1-7,12.0,0.8,-11.0,-99.9,-99.9,-99.9,0,0,100,0.00,40.00,0,-999,0,0.00
2014-1-8,9.0,4.3,1.0,-99.9,-99.9,-99.9,0,0,100,0.00,40.00,0,-999,0,0.00
2014-1-9,18.0,7.1,-2.0,-99.9,-99.9,-99.9,0,0,100,0.00,40.00,0,-999,0,0.00
2014-1-10,30.0,26.4,18.0,-99.9,-99.9,-99.9,0,0,100,0.00,40.00,0,-999,0,0.00
2014-1-11,27.0,22.6,19.0,-99.9,-99.9,-99.9,0,0,100,0.00,40.00,0,-999,0,0.00
2014-1-12,45.0,34.0,21.0,-99.9,-99.9,-99.9,0,0,100,0.00,40.00,0,-999,0,0.00
2014-1-13,37.0,30.5,28.0,-99.9,-99.9,-99.9,0,0,100,0.00,40.00,0,-999,0,0.00
2014-1-14,34.0,23.7,14.0,-99.9,-99.9,-99.9,0,0,100,0.00,40.00,0,-999,0,0.00
2014-1-15,25.0,15.3,9.0,-99.9,-99.9,-99.9,0,0,100,0.00,40.00,0,-999,0,0.00
2014-1-16,32.0,23.7,3.0,-99.9,-99.9,-99.9,0,0,100,0.00,40.00,0,-999,0,0.00
2014-1-17,18.0,9.8,3.0,-99.9,-99.9,-99.9,0,0,100,0.00,40.00,0,-999,0,0.00
2014-1-18,30.0,20.1,10.0,-99.9,-99.9,-99.9,0,0,100,0.00,40.00,0,-999,0,0.00
2014-1-19,48.0,30.9,16.0,-99.9,-99.9,-99.9,0,0,100,0.00,40.00,0,-999,0,0.00
2014-1-20,37.0,25.7,5.0,-99.9,-99.9,-99.9,0,0,100,0.00,40.00,0,-999,0,0.00
2014-1-21,7.0,-3.7,-9.0,-99.9,-99.9,-99.9,0,0,100,0.00,40.00,0,-999,0,0.00
2014-1-22,14.0,9.4,-8.0,-99.9,-99.9,-99.9,0,0,100,0.00,40.00,0,-999,0,0.00
2014-1-23,3.0,-7.1,-11.0,-99.9,-99.9,-99.9,0,0,100,0.00,40.00,0,-999,0,0.00
2014-1-24,34.0,23.0,3.0,-99.9,-99.9,-99.9,0,0,100,0.00,40.00,0,-999,0,0.00
2014-1-25,32.0,18.8,12.0,-99.9,-99.9,-99.9,0,0,100,0.00,40.00,0,-999,0,0.00
2014-1-26,41.0,28.3,1.0,-99.9,-99.9,-99.9,0,0,100,0.00,40.00,0,-999,0,0.00
2014-1-27,1.0,-4.2,-8.0,-99.9,-99.9,-99.9,0,0,100,0.00,40.00,0,-999,0,0.00
2014-1-28,12.0,2.2,-9.0,-99.9,-99.9,-99.9,0,0,100,0.00,40.00,0,-999,0,0.00
2014-1-29,34.0,22.6,1.0,-99.9,-99.9,-99.9,0,0,100,0.00,40.00,0,-999,0,0.00
2014-1-30,36.0,21.6,5.0,-99.9,-99.9,-99.9,0,0,100,0.00,40.00,0,-999,0,0.00
2014-1-31,14.0,7.7,3.0,-99.9,-99.9,-99.9,0,0,100,0.00,40.00,0,-999,0,0.00
2014-2-1,19.0,11.7,3.0,-99.9,-99.9,-99.9,0,0,100,0.00,40.00,0,-999,0,0.00
2014-2-2,12.0,3.3,-9.0,-99.9,-99.9,-99.9,0,0,100,0.00,40.00,0,-999,0,0.00
2014-2-3,27.0,17.5,-2.0,-99.9,-99.9,-99.9,0,0,100,0.00,40.00,0,-999,0,0.00
2014-2-4,19.0,14.6,3.0,-99.9,-99.9,-99.9,0,0,100,0.00,40.00,0,-999,0,0.00
2014-2-5,3.0,0.9,-2.0,-99.9,-99.9,-99.9,0,0,100,0.00,40.00,0,-999,0,0.00
2014-2-6,5.0,-5.5,-13.0,-99.9,-99.9,-99.9,0,0,100,0.00,40.00,0,-999,0,0.00
2014-2-7,19.0,5.5,-8.0,-99.9,-99.9,-99.9,0,0,100,0.00,40.00,0,-999,0,0.00
2014-2-8,18.0,12.8,9.0,-99.9,-99.9,-99.9,0,0,100,0.00,40.00,0,-999,0,0.00
2014-2-9,9.0,-0.3,-9.0,-99.9,-99.9,-99.9,0,0,100,0.00,40.00,0,-999,0,0.00
2014-2-10,1.0,-7.0,-18.0,-99.9,-99.9,-99.9,0,0,100,0.00,40.00,0,-999,0,0.00
2014-2-11,14.0,3.9,-13.0,-99.9,-99.9,-99.9,0,0,100,0.00,40.00,0,-999,0,0.00
2014-2-12,21.0,13.5,9.0,-99.9,-99.9,-99.9,0,0,100,0.00,40.00,0,-999,0,0.00
2014-2-13,36.0,26.3,16.0,-99.9,-99.9,-99.9,0,0,100,0.00,40.00,0,-999,0,0.00
2014-2-14,14.0,8.7,3.0,-99.9,-99.9,-99.9,0,0,100,0.00,40.00,0,-999,0,0.00
2014-2-15,27.0,13.0,1.0,-99.9,-99.9,-99.9,0,0,100,0.00,40.00,0,-999,0,0.00
2014-2-16,21.0,17.9,14.0,-99.9,-99.9,-99.9,0,0,100,0.00,40.00,0,-999,0,0.00
2014-2-17,34.0,26.1,19.0,-99.9,-99.9,-99.9,0,0,100,0.00,40.00,0,-999,0,0.00
2014-2-18,46.0,34.2,25.0,-99.9,-99.9,-99.9,0,0,100,0.00,40.00,0,-999,0,0.00
2014-2-19,45.0,33.6,27.0,-99.9,-99.9,-99.9,0,0,100,0.00,40.00,0,-999,0,0.00
2014-2-20,34.0,29.5,23.0,-99.9,-99.9,-99.9,0,0,100,0.00,40.00,0,-999,0,0.00
2014-2-21,30.0,22.0,16.0,-99.9,-99.9,-99.9,0,0,100,0.00,40.00,0,-999,0,0.00
2014-2-22,23.0,20.7,16.0,-99.9,-99.9,-99.9,0,0,100,0.00,40.00,0,-999,0,0.00
2014-2-23,19.0,14.1,10.0,-99.9,-99.9,-99.9,0,0,100,0.00,40.00,0,-999,0,0.00
2014-2-24,19.0,13.9,10.0,-99.9,-99.9,-99.9,0,0,100,0.00,40.00,0,-999,0,0.00
2014-2-25,10.0,3.3,-2.0,-99.9,-99.9,-99.9,0,0,100,0.00,40.00,0,-999,0,0.00
2014-2-26,21.0,9.8,-6.0,-99.9,-99.9,-99.9,0,0,100,0.00,40.00,0,-999,0,0.00
2014-2-27,14.0,-2.7,-8.0,-99.9,-99.9,-99.9,0,0,100,0.00,40.00,0,-999,0,0.00
2014-2-28,30.0,15.8,-4.0,-99.9,-99.9,-99.9,0,0,100,0.00,40.00,0,-999,0,0.00
2014-3-1,16.0,1.8,-6.0,-99.9,-99.9,-99.9,0,0,100,0.00,40.00,0,-999,0,0.00
2014-3-2,-6.0,-9.2,-13.0,-99.9,-99.9,-99.9,0,0,100,0.00,40.00,0,-999,0,0.00
2014-3-3,16.0,4.8,-13.0,-99.9,-99.9,-99.9,0,0,100,0.00,40.00,0,-999,0,0.00
2014-3-4,27.0,15.2,5.0,-99.9,-99.9,-99.9,0,0,100,0.00,40.00,0,-999,0,0.00
2014-3-5,21.0,18.3,16.0,-99.9,-99.9,-99.9,0,0,100,0.00,40.00,0,-999,0,0.00
2014-3-6,34.0,24.0,16.0,-99.9,-99.9,-99.9,0,0,100,0.00,40.00,0,-999,0,0.00
2014-3-7,41.0,28.7,21.0,-99.9,-99.9,-99.9,0,0,100,0.00,40.00,0,-999,0,0.00
2014-3-8,27.0,21.6,19.0,-99.9,-99.9,-99.9,0,0,100,0.00,40.00,0,-999,0,0.00
2014-3-9,52.0,35.7,21.0,-99.9,-99.9,-99.9,0,0,100,0.00,40.00,0,-999,0,0.00
2014-3-10,57.0,48.5,37.0,-99.9,-99.9,-99.9,0,0,100,0.00,40.00,0,-999,0,0.00
2014-3-11,41.0,36.0,32.0,-99.9,-99.9,-99.9,0,0,100,0.00,40.00,0,-999,0,0.00
2014-3-12,30.0,26.7,23.0,-99.9,-99.9,-99.9,0,0,100,0.00,40.00,0,-999,0,0.00
2014-3-13,61.0,41.5,25.0,-99.9,-99.9,-99.9,0,0,100,0.00,40.00,0,-999,0,0.00
2014-3-14,46.0,42.6,36.0,-99.9,-99.9,-99.9,0,0,100,0.00,40.00,0,-999,0,0.00
2014-3-15,43.0,33.9,25.0,-99.9,-99.9,-99.9,0,0,100,0.00,40.00,0,-999,0,0.00
2014-3-16,28.0,22.8,16.0,-99.9,-99.9,-99.9,0,0,100,0.00,40.00,0,-999,0,0.00
2014-3-17,43.0,25.6,19.0,-99.9,-99.9,-99.9,0,0,100,0.00,40.00,0,-999,0,0.00
2014-3-18,46.0,36.5,30.0,-99.9,-99.9,-99.9,0,0,100,0.00,40.00,0,-999,0,0.00
2014-3-19,34.0,32.2,30.0,-99.9,-99.9,-99.9,0,0,100,0.00,40.00,0,-999,0,0.00
2014-3-20,54.0,36.9,27.0,-99.9,-99.9,-99.9,0,0,100,0.00,40.00,0,-999,0,0.00
2014-3-21,54.0,39.0,28.0,-99.9,-99.9,-99.9,0,0,100,0.00,40.00,0,-999,0,0.00
2014-3-22,25.0,20.7,16.0,-99.9,-99.9,-99.9,0,0,100,0.00,40.00,0,-999,0,0.00
2014-3-23,28.0,19.9,12.0,-99.9,-99.9,-99.9,0,0,100,0.00,40.00,0,-999,0,0.00
2014-3-24,34.0,26.7,21.0,-99.9,-99.9,-99.9,0,0,100,0.00,40.00,0,-999,0,0.00
2014-3-25,27.0,21.2,18.0,-99.9,-99.9,-99.9,0,0,100,0.00,40.00,0,-999,0,0.00
2014-3-26,50.0,35.1,18.0,-99.9,-99.9,-99.9,0,0,100,0.00,40.00,0,-999,0,0.00
2014-3-27,52.0,43.0,36.0,-99.9,-99.9,-99.9,0,0,100,0.00,40.00,0,-999,0,0.00
2014-3-28,34.0,29.9,28.0,-99.9,-99.9,-99.9,0,0,100,0.00,40.00,0,-999,0,0.00
2014-3-29,46.0,34.6,25.0,-99.9,-99.9,-99.9,0,0,100,0.00,40.00,0,-999,0,0.00
2014-3-30,66.0,42.8,30.0,-99.9,-99.9,-99.9,0,0,100,0.00,40.00,0,-999,0,0.00
2014-3-31,70.0,56.6,27.0,-99.9,-99.9,-99.9,0,0,100,0.00,40.00,0,-999,0,0.00
2014-4-1,39.0,29.7,18.0,-99.9,-99.9,-99.9,0,0,100,0.00,40.00,0,-999,0,0.00
2014-4-2,46.0,39.5,27.0,-99.9,-99.9,-99.9,0,0,100,0.00,40.00,0,-999,0,0.00
2014-4-3,43.0,37.8,34.0,-99.9,-99.9,-99.9,0,0,100,0.00,40.00,0,-999,0,0.00
2014-4-4,36.0,31.2,25.0,-99.9,-99.9,-99.9,0,0,100,0.00,40.00,0,-999,0,0.00
2014-4-5,55.0,39.1,23.0,-99.9,-99.9,-99.9,0,0,100,0.00,40.00,0,-999,0,0.00
2014-4-6,55.0,45.0,36.0,-99.9,-99.9,-99.9,0,0,100,0.00,40.00,0,-999,0,0.00
2014-4-7,57.0,48.3,39.0,-99.9,-99.9,-99.9,0,0,100,0.00,40.00,0,-999,0,0.00
2014-4-8,52.0,41.0,34.0,-99.9,-99.9,-99.9,0,0,100,0.00,40.00,0,-999,0,0.00
2014-4-9,72.0,47.0,28.0,-99.9,-99.9,-99.9,0,0,100,0.00,40.00,0,-999,0,0.00
2014-4-10,63.0,54.3,48.0,-99.9,-99.9,-99.9,0,0,100,0.00,40.00,0,-999,0,0.00
2014-4-11,72.0,57.3,36.0,-99.9,-99.9,-99.9,0,0,100,0.00,40.00,0,-999,0,0.00
2014-4-12,82.0,64.5,55.0,-99.9,-99.9,-99.9,0,0,100,0.00,40.00,0,-999,0,0.00
2014-4-13,57.0,45.6,32.0,-99.9,-99.9,-99.9,0,0,100,0.00,40.00,0,-999,0,0.00
2014-4-14,30.0,26.4,25.0,-99.9,-99.9,-99.9,0,0,100,0.00,40.00,0,-999,0,0.00
2014-4-15,43.0,28.5,21.0,-99.9,-99.9,-99.9,0,0,100,0.00,40.00,0,-999,0,0.00
2014-4-16,59.0,44.0,32.0,-99.9,-99.9,-99.9,0,0,100,0.00,40.00,0,-999,0,0.00
2014-4-17,50.0,36.2,28.0,-99.9,-99.9,-99.9,0,0,100,0.00,40.00,0,-999,0,0.00
2014-4-18,63.0,38.8,27.0,-99.9,-99.9,-99.9,0,0,100,0.00,40.00,0,-999,0,0.00
2014-4-19,75.0,57.4,41.0,-99.9,-99.9,-99.9,0,0,100,0.00,40.00,0,-999,0,0.00
2014-4-20,82.0,65.4,54.0,-99.9,-99.9,-99.9,0,0,100,0.00,40.00,0,-999,0,0.00
2014-4-21,68.0,61.9,52.0,-99.9,-99.9,-99.9,0,0,100,0.00,40.00,0,-999,0,0.00
2014-4-22,61.0,48.2,36.0,-99.9,-99.9,-99.9,0,0,100,0.00,40.00,0,-999,0,0.00
2014-4-23,52.0,44.9,41.0,-99.9,-99.9,-99.9,0,0,100,0.00,40.00,0,-999,0,0.00
2014-4-24,52.0,46.4,43.0,-99.9,-99.9,-99.9,0,0,100,0.00,40.00,0,-999,0,0.00
2014-4-25,75.0,52.3,37.0,-99.9,-99.9,-99.9,0,0,100,0.00,40.00,0,-999,0,0.00
2014-4-26,70.0,56.0,48.0,-99.9,-99.9,-99.9,0,0,100,0.00,40.00,0,-999,0,0.00
2014-4-27,59.0,48.1,41.0,-99.9,-99.9,-99.9,0,0,100,0.00,40.00,0,-999,0,0.00
2014-4-28,55.0,50.9,48.0,-99.9,-99.9,-99.9,0,0,100,0.00,40.00,0,-999,0,0.00
2014-4-29,48.0,41.6,32.0,-99.9,-99.9,-99.9,0,0,100,0.00,40.00,0,-999,0,0.00
2014-4-30,37.0,35.3,32.0,-99.9,-99.9,-99.9,0,0,100,0.00,40.00,0,-999,0,0.00
2014-5-1,41.0,39.4,36.0,-99.9,-99.9,-99.9,0,0,100,0.00,40.00,0,-999,0,0.00
2014-5-2,64.0,50.8,39.0,-99.9,-99.9,-99.9,0,0,100,0.00,40.00,0,-999,0,0.00
2014-5-3,66.0,50.2,39.0,-99.9,-99.9,-99.9,0,0,100,0.00,40.00,0,-999,0,0.00
2014-5-4,59.0,49.4,43.0,-99.9,-99.9,-99.9,0,0,100,0.00,40.00,0,-999,0,0.00
2014-5-5,68.0,54.3,43.0,-99.9,-99.9,-99.9,0,0,100,0.00,40.00,0,-999,0,0.00
2014-5-6,73.0,57.2,45.0,-99.9,-99.9,-99.9,0,0,100,0.00,40.00,0,-999,0,0.00
2014-5-13,50.0,47.5,45.0,-99.9,-99.9,-99.9,0,0,100,0.00,40.00,0,-999,0,0.00
2014-5-14,59.0,47.6,37.0,-99.9,-99.9,-99.9,0,0,100,0.00,40.00,0,-999,0,0.00
2014-5-15,46.0,40.9,36.0,-99.9,-99.9,-99.9,0,0,100,0.00,40.00,0,-999,0,0.00
2014-5-16,50.0,42.4,32.0,-99.9,-99.9,-99.9,0,0,100,0.00,40.00,0,-999,0,0.00
2014-5-17,66.0,50.9,37.0,-99.9,-99.9,-99.9,0,0,100,0.00,40.00,0,-999,0,0.00
2014-5-18,70.0,57.5,43.0,-99.9,-99.9,-99.9,0,0,100,0.00,40.00,0,-999,0,0.00
2014-5-19,72.0,63.0,54.0,-99.9,-99.9,-99.9,0,0,100,0.00,40.00,0,-999,0,0.00
2014-5-20,86.0,70.7,61.0,-99.9,-99.9,-99.9,0,0,100,0.00,40.00,0,-999,0,0.00
2014-5-21,77.0,65.3,59.0,-99.9,-99.9,-99.9,0,0,100,0.00,40.00,0,-999,0,0.00
2014-5-22,77.0,59.9,52.0,-99.9,-99.9,-99.9,0,0,100,0.00,40.00,0,-999,0,0.00
2014-5-23,77.0,63.5,50.0,-99.9,-99.9,-99.9,0,0,100,0.00,40.00,0,-999,0,0.00
2014-5-24,81.0,68.0,55.0,-99.9,-99.9,-99.9,0,0,100,0.00,40.00,0,-999,0,0.00
2014-5-25,79.0,64.7,61.0,-99.9,-99.9,-99.9,0,0,100,0.00,40.00,0,-999,0,0.00
2014-5-26,79.0,68.3,63.0,-99.9,-99.9,-99.9,0,0,100,0.00,40.00,0,-999,0,0.00
2014-5-27,82.0,69.9,63.0,-99.9,-99.9,-99.9,0,0,100,0.00,40.00,0,-999,0,0.00
2014-5-28,81.0,69.2,61.0,-99.9,-99.9,-99.9,0,0,100,0.00,40.00,0,-999,0,0.00
2014-5-29,82.0,71.6,61.0,-99.9,-99.9,-99.9,0,0,100,0.00,40.00,0,-999,0,0.00
2014-5-30,88.0,76.0,66.0,-99.9,-99.9,-99.9,0,0,100,0.00,40.00,0,-999,0,0.00
2014-5-31,84.0,72.4,68.0,-99.9,-99.9,-99.9,0,0,100,0.00,40.00,0,-999,0,0.00
2014-6-1,86.0,74.0,66.0,-99.9,-99.9,-99.9,0,0,100,0.00,40.00,0,-999,0,0.00
2014-6-2,81.0,68.2,64.0,-99.9,-99.9,-99.9,0,0,100,0.00,40.00,0,-999,0,0.00
2014-6-3,82.0,68.1,57.0,-99.9,-99.9,-99.9,0,0,100,0.00,40.00,0,-999,0,0.00
2014-6-4,73.0,66.8,63.0,-99.9,-99.9,-99.9,0,0,100,0.00,40.00,0,-999,0,0.00
2014-6-5,77.0,66.5,57.0,-99.9,-99.9,-99.9,0,0,100,0.00,40.00,0,-999,0,0.00
2014-6-6,84.0,71.1,59.0,-99.9,-99.9,-99.9,0,0,100,0.00,40.00,0,-999,0,0.00
2014-6-7,68.0,65.4,57.0,-99.9,-99.9,-99.9,0,0,100,0.00,40.00,0,-999,0,0.00
2014-6-8,70.0,61.7,55.0,-99.9,-99.9,-99.9,0,0,100,0.00,40.00,0,-999,0,0.00
2014-6-9,73.0,66.6,55.0,-99.9,-99.9,-99.9,0,0,100,0.00,40.00,0,-999,0,0.00
2014-6-10,72.0,65.3,57.0,-99.9,-99.9,-99.9,0,0,100,0.00,40.00,0,-999,0,0.00
2014-6-11,86.0,67.8,55.0,-99.9,-99.9,-99.9,0,0,100,0.00,40.00,0,-999,0,0.00
2014-6-12,72.0,66.4,61.0,-99.9,-99.9,-99.9,0,0,100,0.00,40.00,0,-999,0,0.00
2014-6-13,77.0,65.6,48.0,-99.9,-99.9,-99.9,0,0,100,0.00,40.00,0,-999,0,0.00
2014-6-14,79.0,70.3,55.0,-99.9,-99.9,-99.9,0,0,100,0.00,40.00,0,-999,0,0.00
2014-6-15,79.0,71.8,68.0,-99.9,-99.9,-99.9,0,0,100,0.00,40.00,0,-999,0,0.00
2014-6-16,88.0,73.8,61.0,-99.9,-99.9,-99.9,0,0,100,0.00,40.00,0,-999,0,0.00
2014-6-17,84.0,75.0,61.0,-99.9,-99.9,-99.9,0,0,100,0.00,40.00,0,-999,0,0.00
2014-6-18,88.0,78.5,64.0,-99.9,-99.9,-99.9,0,0,100,0.00,40.00,0,-999,0,0.00
2014-6-19,77.0,67.8,-58.0,-99.9,-99.9,-99.9,0,0,100,0.00,40.00,0,-999,0,0.00
2014-6-20,90.0,76.4,61.0,-99.9,-99.9,-99.9,0,0,100,0.00,40.00,0,-999,0,0.00
2014-6-21,90.0,74.2,64.0,-99.9,-99.9,-99.9,0,0,100,0.00,40.00,0,-999,0,0.00
2014-6-22,72.0,69.2,63.0,-99.9,-99.9,-99.9,0,0,100,0.00,40.00,0,-999,0,0.00
2014-6-23,77.0,68.4,64.0,-99.9,-99.9,-99.9,0,0,100,0.00,40.00,0,-999,0,0.00
2014-6-24,79.0,70.7,63.0,-99.9,-99.9,-99.9,0,0,100,0.00,40.00,0,-999,0,0.00
2014-6-25,90.0,74.2,61.0,-99.9,-99.9,-99.9,0,0,100,0.00,40.00,0,-999,0,0.00
2014-6-26,75.0,69.1,64.0,-99.9,-99.9,-99.9,0,0,100,0.00,40.00,0,-999,0,0.00
2014-6-27,79.0,72.5,66.0,-99.9,-99.9,-99.9,0,0,100,0.00,40.00,0,-999,0,0.00
2014-6-28,86.0,75.4,68.0,-99.9,-99.9,-99.9,0,0,100,0.00,40.00,0,-999,0,0.00
2014-6-29,82.0,69.8,61.0,-99.9,-99.9,-99.9,0,0,100,0.00,40.00,0,-999,0,0.00
2014-6-30,77.0,71.1,68.0,-99.9,-99.9,-99.9,0,0,100,0.00,40.00,0,-999,0,0.00
2014-7-1,73.0,66.1,61.0,-99.9,-99.9,-99.9,0,0,100,0.00,40.00,0,-999,0,0.00
2014-7-2,64.0,57.6,52.0,-99.9,-99.9,-99.9,0,0,100,0.00,40.00,0,-999,0,0.00
2014-7-3,72.0,62.0,50.0,-99.9,-99.9,-99.9,0,0,100,0.00,40.00,0,-999,0,0.00
2014-7-4,81.0,71.5,59.0,-99.9,-99.9,-99.9,0,0,100,0.00,40.00,0,-999,0,0.00
2014-7-5,64.0,64.0,64.0,-99.9,-99.9,-99.9,0,0,100,0.00,40.00,0,-999,0,0.00
2014-7-21,86.0,86.0,86.0,-99.9,0.0,200.0,0,0,100,0.00,40.00,0,0,0,0.00
2014-7-22,86.0,80.2,68.0,-99.9,0.0,200.0,0,0,100,0.00,40.00,0,0,0,0.00
2014-7-23,99.0,77.6,66.0,-99.9,0.0,200.0,0,0,100,0.00,40.00,0,0,0,0.00
2014-7-24,81.0,72.8,61.0,-99.9,0.0,200.0,0,0,100,0.00,40.00,0,0,0,0.00
2014-7-25,82.0,71.3,59.0,-99.9,0.0,200.0,0,0,100,0.00,40.00,0,0,0,0.00
2014-7-26,86.0,76.0,66.0,-99.9,0.0,200.0,0,0,100,0.00,40.00,0,0,0,0.00
2014-7-27,72.0,68.5,63.0,-99.9,0.0,200.0,0,0,100,0.00,40.00,0,0,0,0.00
2014-7-28,70.0,63.1,57.0,-99.9,0.0,200.0,0,0,100,0.00,40.00,0,0,0,0.00
2014-7-29,75.0,63.9,54.0,-99.9,0.0,200.0,0,0,100,0.00,40.00,0,0,0,0.00
2014-7-30,79.0,66.7,55.0,-99.9,0.0,200.0,0,0,100,0.00,40.00,0,0,0,0.00
2014-7-31,79.0,66.8,57.0,-99.9,0.0,200.0,0,0,100,0.00,40.00,0,0,0,0.00
2014-8-1,82.0,72.1,57.0,-99.9,0.0,200.0,0,0,100,0.00,40.00,0,0,0,0.00
2014-8-2,84.0,74.1,59.0,-99.9,0.0,200.0,0,0,100,0.00,40.00,0,0,0,0.00
2014-8-3,108.0,75.7,64.0,-99.9,0.0,200.0,0,0,100,0.00,40.00,0,0,0,0.00
2014-8-4,127.0,124.7,120.0,-99.9,0.0,200.0,0,0,100,0.00,40.00,0,0,0,0.00
2014-8-5,127.0,82.8,64.0,-99.9,0.0,200.0,0,0,100,0.00,40.00,0,0,0,0.00
2014-11-24,22.0,20.4,20.0,-99.9,0.0,200.0,0,0,100,0.00,40.00,0,0,0,0.00
2014-11-25,34.0,19.9,12.0,-99.9,0.0,200.0,0,0,100,0.00,40.00,0,0,0,0.00
2014-11-26,26.0,24.2,17.0,-99.9,0.0,200.0,0,0,100,0.00,40.00,0,0,0,0.00
2014-11-27,14.0,6.9,3.0,-99.9,0.0,200.0,0,0,100,0.00,40.00,0,0,0,0.00
2014-11-28,32.0,20.8,5.0,-99.9,0.0,200.0,0,0,100,0.00,40.00,0,0,0,0.00
2014-11-29,49.0,37.6,26.0,-99.9,0.0,200.0,0,0,100,0.00,40.00,0,0,0,0.00
2014-11-30,36.0,12.2,5.0,-99.9,0.0,200.0,0,0,100,0.00,40.00,0,0,0,0.00
2014-12-1,9.0,6.0,5.0,-99.9,0.0,200.0,0,0,100,0.00,40.00,0,0,0,0.00
2014-12-2,36.0,20.9,5.0,-99.9,0.0,200.0,0,0,100,0.00,40.00,0,0,0,0.00
2014-12-3,29.0,22.5,19.0,-99.9,0.0,200.0,0,0,100,0.00,40.00,0,0,0,0.00
2014-12-4,29.0,24.6,19.0,-99.9,0.0,200.0,0,0,100,0.00,40.00,0,0,0,0.00
2014-12-5,36.0,30.3,28.0,-99.9,0.0,200.0,0,0,100,0.00,40.00,0,0,0,0.00
2014-12-6,39.0,29.0,26.0,-99.9,0.0,200.0,0,0,100,0.00,40.00,0,0,0,0.00
2014-12-7,34.0,28.3,24.0,-99.9,0.0,200.0,0,0,100,0.00,40.00,0,0,0,0.00
2014-12-8,38.0,32.2,24.0,-99.9,0.0,200.0,0,0,100,0.00,40.00,0,0,0,0.00
2014-12-9,29.0,21.7,17.0,-99.9,0.0,200.0,0,0,100,0.00,40.00,0,0,0,0.00
2014-12-10,29.0,26.9,22.0,-99.9,0.0,200.0,0,0,100,0.00,40.00,0,0,0,0.00
2014-12-11,34.0,28.6,26.0,-99.9,0.0,200.0,0,0,100,0.00,40.00,0,0,0,0.00
2014-12-12,48.0,35.4,28.0,-99.9,0.0,200.0,0,0,100,0.00,40.00,0,0,0,0.00
2014-12-13,55.0,47.7,41.0,-99.9,0.0,200.0,0,0,100,0.00,40.00,0,0,0,0.00
2014-12-14,57.0,52.1,48.0,-99.9,0.0,200.0,0,0,100,0.00,40.00,0,0,0,0.00
2014-12-15,49.0,47.0,38.0,-99.9,0.0,200.0,0,0,100,0.00,40.00,0,0,0,0.00
2014-12-16,26.0,20.2,12.0,-99.9,0.0,200.0,0,0,100,0.00,40.00,0,0,0,0.00
2014-12-17,24.0,14.0,9.0,-99.9,0.0,200.0,0,0,100,0.00,40.00,0,0,0,0.00
2014-12-18,28.0,21.5,17.0,-99.9,0.0,200.0,0,0,100,0.00,40.00,0,0,0,0.00
2014-12-19,29.0,26.2,24.0,-99.9,0.0,200.0,0,0,100,0.00,40.00,0,0,0,0.00
2014-12-20,32.0,30.0,28.0,-99.9,0.0,200.0,0,0,100,0.00,40.00,0,0,0,0.00
2014-12-21,39.0,36.0,32.0,-99.9,0.0,200.0,0,0,100,0.00,40.00,0,0,0,0.00
2014-12-22,38.0,36.8,36.0,-99.9,0.0,200.0,0,0,100,0.00,40.00,0,0,0,0.00
2014-12-23,36.0,32.3,29.0,-99.9,0.0,200.0,0,0,100,0.00,40.00,0,0,0,0.00
2014-12-24,29.0,28.9,28.0,-99.9,0.0,200.0,0,0,100,0.00,40.00,0,0,0,0.00
2014-12-25,43.0,35.2,28.0,-99.9,0.0,200.0,0,0,100,0.00,40.00,0,0,0,0.00
2014-12-26,34.0,30.4,28.0,-99.9,0.0,200.0,0,0,100,0.00,40.00,0,0,0,0.00
2014-12-27,32.0,23.7,17.0,-99.9,0.0,200.0,0,0,100,0.00,40.00,0,0,0,0.00
2014-12-28,32.0,21.2,10.0,-99.9,0.0,200.0,0,0,100,0.00,40.00,0,0,0,0.00
2014-12-29,22.0,15.9,1.0,-99.9,0.0,200.0,0,0,100,0.00,40.00,0,0,0,0.00
2014-12-30,5.0,-0.1,-6.0,-99.9,0.0,200.0,0,0,100,0.00,40.00,0,0,0,0.00
2014-12-31,17.0,2.2,-8.0,-99.9,0.0,200.0,0,0,100,0.00,40.00,0,0,0,0.00
2015-1-1,34.0,22.6,9.0,-99.9,0.0,200.0,0,0,100,0.00,40.00,0,0,0,0.00
2015-1-2,29.0,22.7,14.0,-99.9,0.0,200.0,0,0,100,0.00,40.00,0,0,0,0.00